Regional Weather Roundup
Issued by NWS

Home | Current Version | Previous Version | Text Only | Print | Product List | Glossary On
Versions: 1 2 3 4 5 6 7 8 9 10 11 12 13 14 15 16 17 18 19 20 21 22 23 24 25 26 27 28 29 30 31 32 33 34 35 36 37 38 39 40 41 42 43 44 45 46 47 48 49 50
000
ASUS43 KMPX 270810
RWRMN
WEATHER ROUNDUP FOR MINNESOTA
NATIONAL WEATHER SERVICE TWIN CITIES/CHANHASSEN MN
300 AM CDT TUE SEP 27 2016


NOTE: "FAIR" INDICATES FEW OR NO CLOUDS BELOW 12,000 FEET WITH NO
SIGNIFICANT WEATHER AND/OR OBSTRUCTIONS TO VISIBILITY. N/A MEANS
CURRENT SKY AND/OR WEATHER CONDITIONS ARE NOT AVAILABLE.

MNZ060>063-068>070-270900-
   Twin Cities Metro

CITY           SKY/WX    TMP DP  RH WIND       PRES   REMARKS
TWIN CITIES    CLEAR     53  36  52 W14       29.85F
ST PAUL        CLEAR     52  37  56 W12       29.85F
CRYSTAL        CLEAR     51  36  56 W14       29.84F
BLAINE         CLEAR     52  39  62 W12       29.84S
LAKEVILLE      CLEAR     46  36  66 W8        29.87S
EDEN PRAIRIE   CLEAR     52  35  52 W12       29.86S
LAKEVILLE      CLEAR     46  36  66 W8        29.87S
SOUTH ST PAUL  CLEAR     53  36  52 W12       29.84F
LAKE ELMO      FAIR      52  41  66 W9G18     29.84S
$$
MNZ001>005-007-008-013>017-022>024-027-028-270900-
   Northwest Minnesota

CITY           SKY/WX    TMP DP  RH WIND       PRES   REMARKS
BEMIDJI        CLOUDY    47  41  78 NW16G22   29.82F
HALLOCK        CLEAR     45  43  93 W8        29.89S
ROSEAU         CLOUDY    52  45  76 NW13      29.81F
WARROAD        CLOUDY    50  45  81 NW10      29.80F
THIEF RVR FALL CLEAR     46  41  82 NW13      29.89S
CROOKSTON      CLEAR     45  41  87 NW8       29.91S
FOSSTON        CLEAR     43  39  87 NW8G16    29.88F
DETROIT LAKES  CLEAR     45  41  87 NW13      29.90F
MOORHEAD       CLEAR     41  34  75 NW5       29.93F
PARK RAPIDS    CLEAR     46  39  76 NW10      29.84F
MAHNOMEN       FAIR      44  41  89 W13       29.89S
$$
MNZ006-009>011-018-025>026-270900-
   North Central Minnesota

CITY           SKY/WX    TMP DP  RH WIND       PRES   REMARKS
BAUDETTE       CLOUDY    50  44  80 NW18G25   29.76S
FLAG ISLAND    CLOUDY    52  46  82 NW23      29.76R
INTL FALLS     LGT RAIN  49  46  90 NW14G21   29.70S
WASKISH        CLOUDY    52  45  76 NW16G26   29.78S
BIG FORK       LGT RAIN  50  45  81 W8G18     29.74S
GRAND RAPIDS   CLOUDY    51  42  71 NW15G24   29.76F
CRANE LAKE     LGT RAIN  46  45  93 N10G21    29.68R
ORR            LGT RAIN  48  45  87 NW8       29.66S
COOK           DRIZZLE   48  46  93 W13G20    29.68S
WALKER         CLOUDY    46  40  79 W9G18     29.81F
$$
MNZ012-019>021-037-270900-
   Northeast Minnesota

CITY           SKY/WX    TMP DP  RH WIND       PRES   REMARKS
DULUTH         CLOUDY    51  44  77 NW18G26   29.68S
ELY            DRIZZLE   46  45  93 NW13G25   29.62S
HIBBING        LGT RAIN  47  44  90 NW15G23   29.70S
EVELETH        LGT RAIN  49  46  90 W15G21    29.69S
DULUTH HARBOR  CLOUDY    55  46  71 W17G23    29.70S
TWO HARBORS    DRIZZLE   54  46  76 W7G16     29.62F
SILVER BAY     DRIZZLE   50  48  93 NW3       29.59S
GRAND MARAIS     N/A     52  45  77 W8        29.50S
G MARAIS ARPRT CLOUDY    45  39  81 NW12G24   29.51S
$$
MNZ029>031-032-039>041-046>048-054>057-064-270900-
   West Central Minnesota

CITY           SKY/WX    TMP DP  RH WIND       PRES   REMARKS
FERGUS FALLS   CLEAR     39  34  81 NW5       29.95F
MORRIS         CLEAR     45  37  76 NW7       29.93F
ALEXANDRIA     CLEAR     43  37  79 W8        29.91F
ELBOW LAKE     FAIR      42  36  80 NW6       29.93F
GLENWOOD       CLEAR     43  36  75 W7        29.92F
BENSON         CLEAR     43  36  75 NW7       29.93F
ORTONVILLE     CLEAR     48  37  66 CALM      29.95F
MADISON          N/A     50  39  66 W9        29.96S
WILLMAR        FAIR      45  37  76 NW8       29.94S
$$
MNZ033>034-036-042>043-049>051-058-059-270900-
   Central Minnesota

CITY           SKY/WX    TMP DP  RH WIND       PRES   REMARKS
ST CLOUD       CLEAR     49  40  71 W13       29.85F
SAUK CENTRE    FAIR      42  36  78 W6        29.90S
PAYNESVILLE    CLEAR     44  36  72 W6        29.91S
AITKIN         MOCLDY    52  39  62 W7        29.77F
PINE RIVER     PTCLDY    48  41  76 W10G17    29.85F
BRAINERD       PTCLDY    48  41  76 W10       29.82F
STAPLES        CLEAR     45  39  81 W13G20    29.85F
LONG PRAIRIE   FAIR      46  37  71 W10       29.89S
LITTLE FALLS   CLEAR     46  39  76 W9        29.85F
LITCHFIELD     CLEAR     50  39  66 W7        29.91S
BUFFALO        CLEAR     50  37  61 W9        29.88F
MAPLE LAKE     CLEAR     50  39  65 W10       29.88F
HUTCHINSON     CLEAR     46  39  77 W6        29.92S
$$
MNZ037-044-045-052-053-270900-
   East Central Minnesota

CITY           SKY/WX    TMP DP  RH WIND       PRES   REMARKS
PRINCETON      CLEAR     48  41  76 W8        29.84F
MORA           PTCLDY    46  41  81 W9        29.82S
CAMBRIDGE      CLEAR     52  39  62 W8        29.81S
MOOSE LAKE     CLOUDY    52  41  66 NW6       29.73F
HINCKLEY       CLOUDY    52  43  71 W9G16     29.77F
CLOQUET        CLOUDY    52  41  66 W17       29.71F
MCGREGOR       CLOUDY    52  43  71 W12G20    29.77S
$$
MNZ071>073-080-081-089-090-097-098-270900-
   Southwest Minnesota

CITY           SKY/WX    TMP DP  RH WIND       PRES   REMARKS
MONTEVIDEO     CLEAR     48  37  66 NW6       29.96F
GRANITE FALLS  CLEAR     44  39  83 W7        29.96F
CANBY          CLEAR     48  38  67 W10       29.98F
MARSHALL       CLEAR     47  37  68 W10       29.96F
REDWOOD FALLS  CLEAR     47  37  68 W10       29.94S
OLIVIA         CLEAR     50  37  62 W8        29.92S
PIPESTONE      CLEAR     48  36  61 NW7       30.00F
WINDOM         CLEAR     46  37  71 W8        29.97F
WORTHINGTON    CLEAR     44  36  73 W9        30.00S
JACKSON        CLEAR     52  32  46 NW9       29.97F
TRACY          CLEAR     50  38  65 W6        29.97F
SLAYTON        CLEAR     45  36  70 W6        29.99F
$$
MNZ065>067-074>077-082>085-091>093-270900-
   South Central Minnesota

CITY           SKY/WX    TMP DP  RH WIND       PRES   REMARKS
MANKATO        CLEAR     49  38  65 W12       29.92S
NEW ULM        CLEAR     46  37  71 W8        29.93S
ST JAMES       CLEAR     48  37  66 W7        29.95F
FAIRMONT       CLEAR     51  36  56 W10       29.95F
GLENCOE        CLEAR     49  40  70 W10       29.90S
FARIBAULT      CLEAR     50  37  62 W7G16     29.89F
OWATONNA       CLEAR     46  37  71 W8        29.89F
WASECA         CLEAR     43  37  81 W6        29.92S
ALBERT LEA     CLEAR     48  37  66 W7        29.91F
$$
MNZ078>079-086>088-094>096-270900-
   Southeast Minnesota

CITY           SKY/WX    TMP DP  RH WIND       PRES   REMARKS
ROCHESTER      CLEAR     48  37  65 W10       29.87F
RED WING       CLEAR     52  36  54 W9        29.82F
DODGE CENTER   PTCLDY    46  37  71 W9        29.87F
WINONA         CLEAR     54  36  50 W9G17     29.82F
AUSTIN         CLEAR     46  36  66 W6        29.89F
PRESTON        CLEAR     47  35  63 W12       29.88F
$$
ABBREVIATIONS USED IN REMARKS
   TC - TEMPERATURES IN CELSIUS
  WCI - WIND CHILL INDEX
   HX - HEAT INDEX
  VSB - VISIBILITY
$$



USA.gov is the U.S. government's official web portal to all federal, state and local government web resources and services.